Regional Weather Roundup
Issued by NWS

Home | Current Version | Previous Version | Text Only | Print | Product List | Glossary Off
Versions: 1 2 3 4 5 6 7 8 9 10 11 12 13 14 15 16 17 18 19 20 21 22 23 24 25 26 27

000
ASUS45 KSLC 281810
RWRUT

UTAH REGIONAL WEATHER ROUNDUP
NATIONAL WEATHER SERVICE SALT LAKE CITY UT
1200 PM MDT THU JUL 28 2016

UTZ001>011-023>025-281900-

NORTHERN UTAH

CITY           SKY/WX    TMP DP  RH WIND       PRES   REMARKS
BRIGHAM CITY     N/A     89  32  13 CALM      30.12S
HILL AFB       NOT AVBL
LOGAN          SUNNY     84  39  20 CALM      30.15S
OGDEN          SUNNY     90  35  14 VRB3      30.12S
PROVO AIRPORT  MOSUNNY   84  50  30 SE40      30.14F
SALT LAKE CITY MOSUNNY   95  34  11 NW6       30.10S HX  90
VERNAL         SUNNY     84  27  12 E5        30.17S
WENDOVER       SUNNY     90  37  15 SE12      30.14S
HEBER CITY     SUNNY     82  36  18 CALM      30.21F
WEST JORDAN    SUNNY     90  43  19 N6        30.15

$$

UTZ012>022-026-027-281900-

SOUTHERN/CENTRAL UTAH

CITY           SKY/WX    TMP DP  RH WIND       PRES   REMARKS
BLANDING       SUNNY     87  42  20 SW3       30.31F
BRYCE CANYON   MOSUNNY   89  27  10 W10       30.37S
CEDAR CITY     SUNNY     97  37  12 VRB6      30.18S HX  92
DELTA          MOSUNNY   90  30  12 CALM      30.14S
MILFORD        SUNNY     96  25   8 N12       30.14F HX  90
MOAB/CYNLANDS  SUNNY     97  31   9 VRB3      30.08F HX  91
PRICE          MOSUNNY   92  24   8 S6        30.20F
ST GEORGE      CLEAR    100  46  16 NW3       29.96F HX  96

$$

REGIONAL REPORTS     COLORADO/ARIZONA

CITY           SKY/WX    TMP DP  RH WIND       PRES   REMARKS
CRAIG, CO      SUNNY     85  26  11 N6        30.25F
GRAND JUNCTION SUNNY     90  30  11 S5        30.12F
RIFLE          SUNNY     87  33  14 N6        30.18F
MONTROSE       SUNNY     88  40  18 CALM      30.21F
CORTEZ         SUNNY     92  45  19 W7G16     30.23S
PAGE, AZ       SUNNY     98  35  11 VRB3      30.07S HX  93
GRAND CANYON   SUNNY     90  40  17 VRB3      30.31S
KINGMAN        SUNNY    100  49  17 SW17      30.04S HX  97
FLAGSTAFF      SUNNY     81  54  39 SW6       30.34S

$$

REGIONAL REPORTS    NEVADA/IDAHO/WYOMING

CITY           SKY/WX    TMP DP  RH WIND       PRES   REMARKS
LAS VEGAS, NV  PTSUNNY  104  43  12 SW3       29.86S HX  99
ELY            SUNNY     91  25   9 N10       30.26F
ELKO           SUNNY     90  32  12 VRB5      30.19F
POCATELLO, ID  SUNNY     84  47  27 NE7       30.16F
BURLEY         SUNNY     81  46  29 W7        30.14S
EVANSTON, WY   SUNNY     84  27  12 NE9       30.33F
ROCK SPRINGS   SUNNY     78  43  28 E8        30.30F
KEMMERER         N/A    N/A N/A N/A NW10G22   30.33F

$$




USA.gov is the U.S. government's official web portal to all federal, state and local government web resources and services.